Time,TemperatureF,DewpointF,PressureIn,WindDirection,WindDirectionDegrees,WindSpeedMPH,WindSpeedGustMPH,Humidity,HourlyPrecipIn,Conditions,Clouds,dailyrainin,SoftwareType,DateUTC
2013-01-16 00:03:00,20.6,14.5,30.09,SSE,157,1.0,7.0,77,0.00,,,0.00,Weather View 32 v70,2013-01-16 06:03:00,
2013-01-16 00:08:00,20.6,14.5,30.08,South,180,4.0,7.0,77,0.00,,,0.00,Weather View 32 v70,2013-01-16 06:08:00,
2013-01-16 00:13:00,20.6,14.5,30.08,South,180,6.0,7.0,77,0.00,,,0.00,Weather View 32 v70,2013-01-16 06:13:00,
2013-01-16 00:18:00,20.7,14.6,30.08,SSE,157,2.0,7.0,77,0.00,,,0.00,Weather View 32 v70,2013-01-16 06:18:00,
2013-01-16 00:23:00,20.9,14.5,30.08,South,180,2.0,8.0,76,0.00,,,0.00,Weather View 32 v70,2013-01-16 06:23:00,
2013-01-16 00:28:00,20.8,14.4,30.08,South,180,0.0,8.0,76,0.00,,,0.00,Weather View 32 v70,2013-01-16 06:28:00,
2013-01-16 00:33:00,20.6,14.5,30.07,SSE,157,3.0,8.0,77,0.00,,,0.00,Weather View 32 v70,2013-01-16 06:33:00,
2013-01-16 00:38:00,20.6,14.5,30.07,South,180,2.0,8.0,77,0.00,,,0.00,Weather View 32 v70,2013-01-16 06:38:00,
2013-01-16 00:43:00,20.6,14.2,30.07,SSE,157,1.0,8.0,76,0.00,,,0.00,Weather View 32 v70,2013-01-16 06:43:00,
2013-01-16 00:48:00,20.6,14.2,30.07,SE,135,2.0,8.0,76,0.00,,,0.00,Weather View 32 v70,2013-01-16 06:48:00,
2013-01-16 00:53:00,20.7,14.3,30.06,SE,135,2.0,8.0,76,0.00,,,0.00,Weather View 32 v70,2013-01-16 06:53:00,
2013-01-16 00:58:00,20.7,14.3,30.06,SE,135,2.0,8.0,76,0.00,,,0.00,Weather View 32 v70,2013-01-16 06:58:00,
2013-01-16 01:03:00,20.7,14.6,30.06,SE,135,1.0,8.0,77,0.00,,,0.00,Weather View 32 v70,2013-01-16 07:03:00,
2013-01-16 01:08:00,20.9,14.5,30.06,SE,135,1.0,8.0,76,0.00,,,0.00,Weather View 32 v70,2013-01-16 07:08:00,
2013-01-16 01:13:00,21.2,14.8,30.05,South,180,4.0,8.0,76,0.00,,,0.00,Weather View 32 v70,2013-01-16 07:13:00,
2013-01-16 01:18:00,21.9,14.9,30.04,South,180,4.0,8.0,74,0.00,,,0.00,Weather View 32 v70,2013-01-16 07:18:00,
2013-01-16 01:23:00,22.3,15.0,30.03,SSW,202,7.0,10.0,73,0.00,,,0.00,Weather View 32 v70,2013-01-16 07:23:00,
2013-01-16 01:28:00,22.7,14.7,30.03,South,180,6.0,10.0,71,0.00,,,0.00,Weather View 32 v70,2013-01-16 07:28:00,
2013-01-16 01:33:00,22.9,15.2,30.03,South,180,4.0,10.0,72,0.00,,,0.00,Weather View 32 v70,2013-01-16 07:33:00,
2013-01-16 01:38:00,22.9,14.9,30.03,SSW,202,4.0,10.0,71,0.00,,,0.00,Weather View 32 v70,2013-01-16 07:38:00,
2013-01-16 01:43:00,23.1,15.4,30.02,SSW,202,6.0,11.0,72,0.00,,,0.00,Weather View 32 v70,2013-01-16 07:43:00,
2013-01-16 01:48:00,23.3,15.3,30.03,SSW,202,4.0,11.0,71,0.00,,,0.00,Weather View 32 v70,2013-01-16 07:48:00,
2013-01-16 01:53:00,23.5,15.8,30.02,SSW,202,5.0,11.0,72,0.00,,,0.00,Weather View 32 v70,2013-01-16 07:53:00,
2013-01-16 01:58:00,23.7,15.7,30.02,South,180,5.0,11.0,71,0.00,,,0.00,Weather View 32 v70,2013-01-16 07:58:00,
2013-01-16 02:03:00,23.9,15.9,30.02,South,180,3.0,11.0,71,0.00,,,0.00,Weather View 32 v70,2013-01-16 08:03:00,
2013-01-16 02:08:00,24.0,16.3,30.01,South,180,6.0,11.0,72,0.00,,,0.00,Weather View 32 v70,2013-01-16 08:08:00,
2013-01-16 02:13:00,24.2,16.2,30.01,SSW,202,6.0,11.0,71,0.00,,,0.00,Weather View 32 v70,2013-01-16 08:13:00,
2013-01-16 02:18:00,24.4,16.3,30.01,South,180,6.0,13.0,71,0.00,,,0.00,Weather View 32 v70,2013-01-16 08:18:00,
2013-01-16 02:23:00,24.6,16.5,30.01,SSW,202,5.0,13.0,71,0.00,,,0.00,Weather View 32 v70,2013-01-16 08:23:00,
2013-01-16 02:28:00,24.6,16.5,30.02,SW,225,7.0,13.0,71,0.00,,,0.00,Weather View 32 v70,2013-01-16 08:28:00,
2013-01-16 02:33:00,24.8,16.7,30.02,SW,225,3.0,13.0,71,0.00,,,0.00,Weather View 32 v70,2013-01-16 08:33:00,
2013-01-16 02:38:00,24.8,17.1,30.01,South,180,2.0,13.0,72,0.00,,,0.00,Weather View 32 v70,2013-01-16 08:38:00,
2013-01-16 02:43:00,24.9,17.2,30.01,South,180,4.0,13.0,72,0.00,,,0.00,Weather View 32 v70,2013-01-16 08:43:00,
2013-01-16 02:48:00,25.0,17.6,30.01,SE,135,2.0,13.0,73,0.00,,,0.00,Weather View 32 v70,2013-01-16 08:48:00,
2013-01-16 02:53:00,25.1,17.7,30.01,South,180,2.0,13.0,73,0.00,,,0.00,Weather View 32 v70,2013-01-16 08:53:00,
2013-01-16 02:58:00,25.2,18.1,30.01,SE,135,1.0,13.0,74,0.00,,,0.00,Weather View 32 v70,2013-01-16 08:58:00,
2013-01-16 03:03:00,25.3,18.2,30.01,South,180,2.0,13.0,74,0.00,,,0.00,Weather View 32 v70,2013-01-16 09:03:00,
2013-01-16 03:08:00,25.4,18.3,30.00,SE,135,1.0,13.0,74,0.00,,,0.00,Weather View 32 v70,2013-01-16 09:08:00,
2013-01-16 03:13:00,25.5,18.7,30.00,SE,135,2.0,13.0,75,0.00,,,0.00,Weather View 32 v70,2013-01-16 09:13:00,
2013-01-16 03:18:00,25.6,18.8,30.00,South,180,1.0,11.0,75,0.00,,,0.00,Weather View 32 v70,2013-01-16 09:18:00,
2013-01-16 03:24:00,25.7,19.2,29.99,SSE,157,1.0,10.0,76,0.00,,,0.00,Weather View 32 v70,2013-01-16 09:24:00,
2013-01-16 03:29:00,25.8,19.3,30.00,SSW,202,2.0,10.0,76,0.00,,,0.00,Weather View 32 v70,2013-01-16 09:29:00,
2013-01-16 03:34:00,25.9,19.7,30.00,SW,225,2.0,7.0,77,0.00,,,0.00,Weather View 32 v70,2013-01-16 09:34:00,
2013-01-16 03:39:00,26.3,20.1,30.00,SSW,202,1.0,7.0,77,0.00,,,0.00,Weather View 32 v70,2013-01-16 09:39:00,
2013-01-16 03:44:00,26.5,20.3,29.99,South,180,2.0,7.0,77,0.00,,,0.00,Weather View 32 v70,2013-01-16 09:44:00,
2013-01-16 03:49:00,26.7,20.5,29.99,SSE,157,2.0,6.0,77,0.00,,,0.00,Weather View 32 v70,2013-01-16 09:49:00,
2013-01-16 03:54:00,26.7,20.8,29.98,SE,135,1.0,5.0,78,0.00,,,0.00,Weather View 32 v70,2013-01-16 09:54:00,
2013-01-16 03:59:00,26.8,20.9,29.98,SE,135,1.0,5.0,78,0.00,,,0.00,Weather View 32 v70,2013-01-16 09:59:00,
2013-01-16 04:04:00,26.9,21.3,29.99,SE,135,1.0,5.0,79,0.00,,,0.00,Weather View 32 v70,2013-01-16 10:04:00,
2013-01-16 04:09:00,26.9,21.3,29.98,ESE,112,5.0,5.0,79,0.00,,,0.00,Weather View 32 v70,2013-01-16 10:09:00,
2013-01-16 04:14:00,26.9,21.3,29.97,ESE,112,4.0,6.0,79,0.00,,,0.00,Weather View 32 v70,2013-01-16 10:14:00,
2013-01-16 04:19:00,26.9,21.6,29.98,SE,135,1.0,6.0,80,0.00,,,0.00,Weather View 32 v70,2013-01-16 10:19:00,
2013-01-16 04:24:00,27.0,21.7,29.97,SE,135,4.0,6.0,80,0.00,,,0.00,Weather View 32 v70,2013-01-16 10:24:00,
2013-01-16 04:29:00,26.9,21.6,29.96,SE,135,3.0,6.0,80,0.00,,,0.00,Weather View 32 v70,2013-01-16 10:29:00,
2013-01-16 04:34:00,27.0,21.7,29.97,SE,135,2.0,6.0,80,0.00,,,0.00,Weather View 32 v70,2013-01-16 10:34:00,
2013-01-16 04:39:00,27.1,22.0,29.97,SE,135,0.0,6.0,81,0.00,,,0.00,Weather View 32 v70,2013-01-16 10:39:00,
2013-01-16 04:44:00,27.2,22.4,29.97,SSW,202,1.0,6.0,82,0.00,,,0.00,Weather View 32 v70,2013-01-16 10:44:00,
2013-01-16 04:49:00,27.9,23.7,29.97,SSW,202,2.0,6.0,84,0.00,,,0.00,Weather View 32 v70,2013-01-16 10:49:00,
2013-01-16 04:54:00,28.3,24.1,29.97,SW,225,3.0,6.0,84,0.00,,,0.00,Weather View 32 v70,2013-01-16 10:54:00,
2013-01-16 04:59:00,28.7,24.5,29.97,South,180,2.0,6.0,84,0.00,,,0.00,Weather View 32 v70,2013-01-16 10:59:00,
2013-01-16 05:04:00,28.9,24.7,29.97,South,180,0.0,6.0,84,0.00,,,0.00,Weather View 32 v70,2013-01-16 11:04:00,
2013-01-16 05:09:00,28.9,24.7,29.97,SE,135,1.0,6.0,84,0.00,,,0.00,Weather View 32 v70,2013-01-16 11:09:00,
2013-01-16 05:14:00,29.2,25.3,29.97,SSE,157,2.0,6.0,85,0.00,,,0.00,Weather View 32 v70,2013-01-16 11:14:00,
2013-01-16 05:19:00,29.3,25.1,29.97,SE,135,2.0,6.0,84,0.00,,,0.00,Weather View 32 v70,2013-01-16 11:19:00,
2013-01-16 05:24:00,29.3,25.4,29.96,SE,135,1.0,6.0,85,0.00,,,0.00,Weather View 32 v70,2013-01-16 11:24:00,
2013-01-16 05:29:00,29.2,25.0,29.96,SE,135,2.0,6.0,84,0.00,,,0.00,Weather View 32 v70,2013-01-16 11:29:00,
2013-01-16 05:34:00,28.9,24.7,29.96,ESE,112,5.0,6.0,84,0.00,,,0.00,Weather View 32 v70,2013-01-16 11:34:00,
2013-01-16 05:39:00,28.5,24.3,29.96,ESE,112,4.0,6.0,84,0.00,,,0.00,Weather View 32 v70,2013-01-16 11:39:00,
2013-01-16 05:44:00,28.4,24.2,29.96,ESE,112,3.0,6.0,84,0.00,,,0.00,Weather View 32 v70,2013-01-16 11:44:00,
2013-01-16 05:49:00,28.5,24.6,29.96,ESE,112,2.0,6.0,85,0.00,,,0.00,Weather View 32 v70,2013-01-16 11:49:00,
2013-01-16 05:54:00,28.6,24.7,29.97,ESE,112,1.0,6.0,85,0.00,,,0.00,Weather View 32 v70,2013-01-16 11:54:00,
2013-01-16 05:59:00,28.8,25.1,29.97,ESE,112,1.0,6.0,86,0.00,,,0.00,Weather View 32 v70,2013-01-16 11:59:00,
2013-01-16 06:04:00,29.3,25.9,29.97,East,90,1.0,6.0,87,0.00,,,0.00,Weather View 32 v70,2013-01-16 12:04:00,
2013-01-16 06:09:00,29.9,26.8,29.97,South,180,0.0,6.0,88,0.00,,,0.00,Weather View 32 v70,2013-01-16 12:09:00,
2013-01-16 06:14:00,30.7,27.3,29.98,WNW,292,0.0,6.0,87,0.00,,,0.00,Weather View 32 v70,2013-01-16 12:14:00,
2013-01-16 06:19:00,31.2,28.1,29.97,WNW,292,0.0,6.0,88,0.00,,,0.00,Weather View 32 v70,2013-01-16 12:19:00,
2013-01-16 06:24:00,31.6,28.2,29.98,WSW,247,2.0,6.0,87,0.00,,,0.00,Weather View 32 v70,2013-01-16 12:24:00,
2013-01-16 06:29:00,32.2,28.8,29.98,WSW,247,0.0,6.0,87,0.00,,,0.00,Weather View 32 v70,2013-01-16 12:29:00,
2013-01-16 06:34:00,32.5,28.8,29.98,WSW,247,0.0,6.0,86,0.00,,,0.00,Weather View 32 v70,2013-01-16 12:34:00,
2013-01-16 06:39:00,32.5,28.5,29.98,WSW,247,1.0,5.0,85,0.00,,,0.00,Weather View 32 v70,2013-01-16 12:39:00,
2013-01-16 06:44:00,32.3,28.9,29.98,WSW,247,1.0,4.0,87,0.00,,,0.00,Weather View 32 v70,2013-01-16 12:44:00,
2013-01-16 06:49:00,32.6,29.2,29.98,SW,225,1.0,4.0,87,0.00,,,0.00,Weather View 32 v70,2013-01-16 12:49:00,
2013-01-16 06:54:00,32.7,29.3,29.98,WSW,247,1.0,4.0,87,0.00,,,0.00,Weather View 32 v70,2013-01-16 12:54:00,
2013-01-16 06:59:00,32.8,29.6,29.98,West,270,2.0,6.0,88,0.00,,,0.00,Weather View 32 v70,2013-01-16 12:59:00,
2013-01-16 07:04:00,33.2,30.0,29.98,West,270,4.0,7.0,88,0.00,,,0.00,Weather View 32 v70,2013-01-16 13:04:00,
2013-01-16 07:09:00,33.7,30.2,29.99,West,270,8.0,8.0,87,0.00,,,0.00,Weather View 32 v70,2013-01-16 13:09:00,
2013-01-16 07:15:00,34.4,30.6,29.99,WSW,247,9.0,9.0,86,0.00,,,0.00,Weather View 32 v70,2013-01-16 13:15:00,
2013-01-16 07:20:00,34.8,31.0,30.00,West,270,6.0,12.0,86,0.00,,,0.00,Weather View 32 v70,2013-01-16 13:20:00,
2013-01-16 07:25:00,35.2,31.1,30.00,West,270,4.0,12.0,85,0.00,,,0.00,Weather View 32 v70,2013-01-16 13:25:00,
2013-01-16 07:30:00,35.3,31.2,30.00,WSW,247,6.0,12.0,85,0.00,,,0.00,Weather View 32 v70,2013-01-16 13:30:00,
2013-01-16 07:35:00,35.4,31.3,30.00,West,270,9.0,12.0,85,0.00,,,0.00,Weather View 32 v70,2013-01-16 13:35:00,
2013-01-16 07:40:00,35.7,31.6,30.00,West,270,5.0,12.0,85,0.00,,,0.00,Weather View 32 v70,2013-01-16 13:40:00,
2013-01-16 07:45:00,35.9,31.8,30.00,West,270,6.0,12.0,85,0.00,,,0.00,Weather View 32 v70,2013-01-16 13:45:00,
2013-01-16 07:50:00,35.9,31.8,30.00,WSW,247,7.0,12.0,85,0.00,,,0.00,Weather View 32 v70,2013-01-16 13:50:00,
2013-01-16 07:55:00,36.1,31.7,30.00,West,270,6.0,12.0,84,0.00,,,0.00,Weather View 32 v70,2013-01-16 13:55:00,
2013-01-16 08:00:00,36.2,31.8,30.00,West,270,6.0,12.0,84,0.00,,,0.00,Weather View 32 v70,2013-01-16 14:00:00,
2013-01-16 08:05:00,36.1,31.7,30.00,West,270,3.0,12.0,84,0.00,,,0.00,Weather View 32 v70,2013-01-16 14:05:00,
2013-01-16 08:10:00,36.2,31.8,30.00,West,270,3.0,12.0,84,0.00,,,0.00,Weather View 32 v70,2013-01-16 14:10:00,
2013-01-16 08:15:00,36.3,31.9,30.01,West,270,7.0,12.0,84,0.00,,,0.00,Weather View 32 v70,2013-01-16 14:15:00,
2013-01-16 08:20:00,36.4,31.7,30.01,West,270,4.0,11.0,83,0.00,,,0.00,Weather View 32 v70,2013-01-16 14:20:00,
2013-01-16 08:25:00,36.6,31.9,30.02,West,270,6.0,11.0,83,0.00,,,0.00,Weather View 32 v70,2013-01-16 14:25:00,
2013-01-16 08:30:00,36.8,32.1,30.02,West,270,6.0,12.0,83,0.00,,,0.00,Weather View 32 v70,2013-01-16 14:30:00,
2013-01-16 08:35:00,36.9,31.9,30.02,West,270,6.0,12.0,82,0.00,,,0.00,Weather View 32 v70,2013-01-16 14:35:00,
2013-01-16 08:40:00,37.1,32.1,30.02,WSW,247,4.0,12.0,82,0.00,,,0.00,Weather View 32 v70,2013-01-16 14:40:00,
2013-01-16 08:45:00,37.1,32.1,30.03,West,270,6.0,12.0,82,0.00,,,0.00,Weather View 32 v70,2013-01-16 14:45:00,
2013-01-16 08:50:00,37.2,32.2,30.03,West,270,7.0,12.0,82,0.00,,,0.00,Weather View 32 v70,2013-01-16 14:50:00,
2013-01-16 08:55:00,37.3,32.3,30.03,West,270,6.0,12.0,82,0.00,,,0.00,Weather View 32 v70,2013-01-16 14:55:00,
2013-01-16 09:00:00,37.3,32.3,30.03,WSW,247,4.0,14.0,82,0.00,,,0.00,Weather View 32 v70,2013-01-16 15:00:00,
2013-01-16 09:05:00,37.3,32.3,30.04,West,270,7.0,14.0,82,0.00,,,0.00,Weather View 32 v70,2013-01-16 15:05:00,
2013-01-16 09:10:00,37.4,32.4,30.04,West,270,7.0,14.0,82,0.00,,,0.00,Weather View 32 v70,2013-01-16 15:10:00,
2013-01-16 09:15:00,37.5,32.2,30.04,West,270,5.0,14.0,81,0.00,,,0.00,Weather View 32 v70,2013-01-16 15:15:00,
2013-01-16 09:20:00,37.8,32.2,30.04,WSW,247,4.0,14.0,80,0.00,,,0.00,Weather View 32 v70,2013-01-16 15:20:00,
2013-01-16 09:25:00,38.1,32.5,30.04,West,270,11.0,14.0,80,0.00,,,0.00,Weather View 32 v70,2013-01-16 15:25:00,
2013-01-16 09:30:00,38.4,32.5,30.04,West,270,7.0,14.0,79,0.00,,,0.00,Weather View 32 v70,2013-01-16 15:30:00,
2013-01-16 09:35:00,38.8,32.5,30.04,West,270,4.0,14.0,78,0.00,,,0.00,Weather View 32 v70,2013-01-16 15:35:00,
2013-01-16 09:40:00,38.9,32.6,30.04,West,270,6.0,14.0,78,0.00,,,0.00,Weather View 32 v70,2013-01-16 15:40:00,
2013-01-16 09:45:00,39.2,32.9,30.05,West,270,6.0,14.0,78,0.00,,,0.00,Weather View 32 v70,2013-01-16 15:45:00,
2013-01-16 09:50:00,39.6,33.0,30.05,West,270,7.0,14.0,77,0.00,,,0.00,Weather View 32 v70,2013-01-16 15:50:00,
2013-01-16 09:55:00,39.8,33.2,30.05,West,270,6.0,14.0,77,0.00,,,0.00,Weather View 32 v70,2013-01-16 15:55:00,
2013-01-16 10:00:00,40.0,33.4,30.05,SW,225,4.0,12.0,77,0.00,,,0.00,Weather View 32 v70,2013-01-16 16:00:00,
2013-01-16 10:05:00,40.3,33.3,30.05,West,270,7.0,12.0,76,0.00,,,0.00,Weather View 32 v70,2013-01-16 16:05:00,
2013-01-16 10:10:00,40.5,33.2,30.05,West,270,7.0,12.0,75,0.00,,,0.00,Weather View 32 v70,2013-01-16 16:10:00,
2013-01-16 10:15:00,40.8,33.5,30.05,WSW,247,2.0,12.0,75,0.00,,,0.00,Weather View 32 v70,2013-01-16 16:15:00,
2013-01-16 10:20:00,40.9,33.2,30.05,West,270,9.0,12.0,74,0.00,,,0.00,Weather View 32 v70,2013-01-16 16:20:00,
2013-01-16 10:25:00,41.1,33.4,30.06,West,270,7.0,12.0,74,0.00,,,0.00,Weather View 32 v70,2013-01-16 16:25:00,
2013-01-16 10:30:00,41.4,33.4,30.06,West,270,10.0,12.0,73,0.00,,,0.00,Weather View 32 v70,2013-01-16 16:30:00,
2013-01-16 10:35:00,41.6,33.2,30.06,WNW,292,5.0,14.0,72,0.00,,,0.00,Weather View 32 v70,2013-01-16 16:35:00,
2013-01-16 10:40:00,41.9,33.2,30.06,West,270,7.0,14.0,71,0.00,,,0.00,Weather View 32 v70,2013-01-16 16:40:00,
2013-01-16 10:45:00,42.2,33.5,30.06,West,270,4.0,16.0,71,0.00,,,0.00,Weather View 32 v70,2013-01-16 16:45:00,
2013-01-16 10:50:00,42.3,33.2,30.06,West,270,8.0,16.0,70,0.00,,,0.00,Weather View 32 v70,2013-01-16 16:50:00,
2013-01-16 10:55:00,42.4,33.3,30.06,WSW,247,4.0,16.0,70,0.00,,,0.00,Weather View 32 v70,2013-01-16 16:55:00,
2013-01-16 11:00:00,42.5,33.4,30.06,West,270,6.0,16.0,70,0.00,,,0.00,Weather View 32 v70,2013-01-16 17:00:00,
2013-01-16 11:05:00,42.6,33.5,30.06,West,270,7.0,16.0,70,0.00,,,0.00,Weather View 32 v70,2013-01-16 17:05:00,
2013-01-16 11:10:00,42.7,33.2,30.06,West,270,7.0,16.0,69,0.00,,,0.00,Weather View 32 v70,2013-01-16 17:10:00,
2013-01-16 11:15:00,42.8,33.3,30.07,West,270,6.0,16.0,69,0.00,,,0.00,Weather View 32 v70,2013-01-16 17:15:00,
2013-01-16 11:20:00,42.9,33.4,30.06,West,270,9.0,16.0,69,0.00,,,0.00,Weather View 32 v70,2013-01-16 17:20:00,
2013-01-16 11:25:00,43.4,33.5,30.06,West,270,7.0,16.0,68,0.00,,,0.00,Weather View 32 v70,2013-01-16 17:25:00,
2013-01-16 11:30:00,43.9,33.3,30.06,West,270,6.0,16.0,66,0.00,,,0.00,Weather View 32 v70,2013-01-16 17:30:00,
2013-01-16 11:35:00,44.2,33.5,30.06,West,270,8.0,16.0,66,0.00,,,0.00,Weather View 32 v70,2013-01-16 17:35:00,
2013-01-16 11:40:00,44.4,33.4,30.06,NW,315,12.0,16.0,65,0.00,,,0.00,Weather View 32 v70,2013-01-16 17:40:00,
2013-01-16 11:45:00,44.6,33.2,30.05,WNW,292,7.0,14.0,64,0.00,,,0.00,Weather View 32 v70,2013-01-16 17:45:00,
2013-01-16 11:50:00,44.8,33.3,30.05,West,270,6.0,14.0,64,0.00,,,0.00,Weather View 32 v70,2013-01-16 17:50:00,
2013-01-16 11:55:00,44.9,33.4,30.05,West,270,12.0,14.0,64,0.00,,,0.00,Weather View 32 v70,2013-01-16 17:55:00,
2013-01-16 12:00:00,45.1,33.6,30.05,West,270,4.0,14.0,64,0.00,,,0.00,Weather View 32 v70,2013-01-16 18:00:00,
2013-01-16 12:05:00,45.4,33.9,30.05,West,270,9.0,14.0,64,0.00,,,0.00,Weather View 32 v70,2013-01-16 18:05:00,
2013-01-16 12:10:00,45.7,33.4,30.04,NW,315,8.0,14.0,62,0.00,,,0.00,Weather View 32 v70,2013-01-16 18:10:00,
2013-01-16 12:15:00,46.0,33.7,30.05,West,270,7.0,14.0,62,0.00,,,0.00,Weather View 32 v70,2013-01-16 18:15:00,
2013-01-16 12:20:00,46.3,33.6,30.04,West,270,11.0,14.0,61,0.00,,,0.00,Weather View 32 v70,2013-01-16 18:20:00,
2013-01-16 12:25:00,46.7,33.5,30.05,WNW,292,6.0,14.0,60,0.00,,,0.00,Weather View 32 v70,2013-01-16 18:25:00,
2013-01-16 12:30:00,46.9,33.3,30.05,West,270,12.0,14.0,59,0.00,,,0.00,Weather View 32 v70,2013-01-16 18:30:00,
2013-01-16 12:35:00,47.1,33.1,30.05,West,270,9.0,15.0,58,0.00,,,0.00,Weather View 32 v70,2013-01-16 18:35:00,
2013-01-16 12:40:00,47.1,33.5,30.05,West,270,9.0,15.0,59,0.00,,,0.00,Weather View 32 v70,2013-01-16 18:40:00,
2013-01-16 12:45:00,46.9,32.9,30.05,West,270,13.0,19.0,58,0.00,,,0.00,Weather View 32 v70,2013-01-16 18:45:00,
2013-01-16 12:50:00,46.9,33.3,30.04,West,270,9.0,19.0,59,0.00,,,0.00,Weather View 32 v70,2013-01-16 18:50:00,
2013-01-16 12:55:00,47.0,33.0,30.04,WNW,292,9.0,19.0,58,0.00,,,0.00,Weather View 32 v70,2013-01-16 18:55:00,
2013-01-16 13:00:00,47.1,32.6,30.05,West,270,8.0,19.0,57,0.00,,,0.00,Weather View 32 v70,2013-01-16 19:00:00,
2013-01-16 13:05:00,47.0,32.5,30.04,West,270,12.0,19.0,57,0.00,,,0.00,Weather View 32 v70,2013-01-16 19:05:00,
2013-01-16 13:10:00,47.0,32.1,30.04,West,270,9.0,19.0,56,0.00,,,0.00,Weather View 32 v70,2013-01-16 19:10:00,
2013-01-16 13:15:00,47.2,32.3,30.05,West,270,8.0,19.0,56,0.00,,,0.00,Weather View 32 v70,2013-01-16 19:15:00,
2013-01-16 13:20:00,47.3,31.9,30.06,WNW,292,11.0,22.0,55,0.00,,,0.00,Weather View 32 v70,2013-01-16 19:20:00,
2013-01-16 13:25:00,47.2,31.8,30.06,NW,315,17.0,26.0,55,0.00,,,0.00,Weather View 32 v70,2013-01-16 19:25:00,
2013-01-16 13:30:00,47.3,31.9,30.05,WNW,292,9.0,26.0,55,0.00,,,0.00,Weather View 32 v70,2013-01-16 19:30:00,
2013-01-16 13:35:00,47.5,32.1,30.05,WNW,292,11.0,26.0,55,0.00,,,0.00,Weather View 32 v70,2013-01-16 19:35:00,
2013-01-16 13:40:00,47.5,32.6,30.06,West,270,9.0,26.0,56,0.00,,,0.00,Weather View 32 v70,2013-01-16 19:40:00,
2013-01-16 13:45:00,47.5,32.6,30.05,West,270,11.0,26.0,56,0.00,,,0.00,Weather View 32 v70,2013-01-16 19:45:00,
2013-01-16 13:50:00,47.7,32.3,30.05,WNW,292,10.0,26.0,55,0.00,,,0.00,Weather View 32 v70,2013-01-16 19:50:00,
2013-01-16 13:55:00,47.7,31.8,30.05,West,270,12.0,26.0,54,0.00,,,0.00,Weather View 32 v70,2013-01-16 19:55:00,
2013-01-16 14:00:00,47.6,31.7,30.05,West,270,7.0,26.0,54,0.00,,,0.00,Weather View 32 v70,2013-01-16 20:00:00,
2013-01-16 14:05:00,47.5,32.1,30.05,West,270,16.0,26.0,55,0.00,,,0.00,Weather View 32 v70,2013-01-16 20:05:00,
2013-01-16 14:10:00,47.6,32.2,30.06,WNW,292,10.0,26.0,55,0.00,,,0.00,Weather View 32 v70,2013-01-16 20:10:00,
2013-01-16 14:15:00,47.7,32.3,30.06,WNW,292,6.0,26.0,55,0.00,,,0.00,Weather View 32 v70,2013-01-16 20:15:00,
2013-01-16 14:20:00,47.7,32.3,30.07,West,270,13.0,26.0,55,0.00,,,0.00,Weather View 32 v70,2013-01-16 20:20:00,
2013-01-16 14:25:00,47.8,31.9,30.07,West,270,12.0,24.0,54,0.00,,,0.00,Weather View 32 v70,2013-01-16 20:25:00,
2013-01-16 14:30:00,47.8,32.4,30.07,West,270,6.0,24.0,55,0.00,,,0.00,Weather View 32 v70,2013-01-16 20:30:00,
2013-01-16 14:35:00,47.6,32.7,30.07,NW,315,13.0,24.0,56,0.00,,,0.00,Weather View 32 v70,2013-01-16 20:35:00,
2013-01-16 14:40:00,47.6,32.2,30.06,WNW,292,9.0,24.0,55,0.00,,,0.00,Weather View 32 v70,2013-01-16 20:40:00,
2013-01-16 14:45:00,47.5,33.0,30.07,West,270,9.0,24.0,57,0.00,,,0.00,Weather View 32 v70,2013-01-16 20:45:00,
2013-01-16 14:50:00,47.5,33.0,30.07,WNW,292,13.0,24.0,57,0.00,,,0.00,Weather View 32 v70,2013-01-16 20:50:00,
2013-01-16 14:55:00,47.6,33.1,30.08,WNW,292,12.0,24.0,57,0.00,,,0.00,Weather View 32 v70,2013-01-16 20:55:00,
2013-01-16 15:00:00,47.3,32.4,30.08,NW,315,13.0,27.0,56,0.00,,,0.00,Weather View 32 v70,2013-01-16 21:00:00,
2013-01-16 15:05:00,47.1,32.6,30.09,West,270,10.0,29.0,57,0.00,,,0.00,Weather View 32 v70,2013-01-16 21:05:00,
2013-01-16 15:10:00,47.1,32.6,30.09,West,270,14.0,29.0,57,0.00,,,0.00,Weather View 32 v70,2013-01-16 21:10:00,
2013-01-16 15:15:00,46.9,32.4,30.08,NW,315,16.0,29.0,57,0.00,,,0.00,Weather View 32 v70,2013-01-16 21:15:00,
2013-01-16 15:20:00,46.9,32.4,30.08,WNW,292,10.0,29.0,57,0.00,,,0.00,Weather View 32 v70,2013-01-16 21:20:00,
2013-01-16 15:25:00,46.7,33.1,30.08,WNW,292,16.0,29.0,59,0.00,,,0.00,Weather View 32 v70,2013-01-16 21:25:00,
2013-01-16 15:30:00,46.7,33.1,30.10,WNW,292,13.0,29.0,59,0.00,,,0.00,Weather View 32 v70,2013-01-16 21:30:00,
2013-01-16 15:35:00,46.4,33.2,30.10,West,270,3.0,29.0,60,0.00,,,0.00,Weather View 32 v70,2013-01-16 21:35:00,
2013-01-16 15:40:00,46.3,33.2,30.09,WNW,292,7.0,29.0,60,0.00,,,0.00,Weather View 32 v70,2013-01-16 21:40:00,
2013-01-16 15:45:00,46.3,33.2,30.09,WNW,292,18.0,29.0,60,0.00,,,0.00,Weather View 32 v70,2013-01-16 21:45:00,
2013-01-16 15:50:00,46.0,34.1,30.11,NW,315,16.0,29.0,63,0.00,,,0.00,Weather View 32 v70,2013-01-16 21:50:00,
2013-01-16 15:55:00,45.6,33.7,30.11,WSW,247,8.0,29.0,63,0.00,,,0.00,Weather View 32 v70,2013-01-16 21:55:00,
2013-01-16 16:00:00,45.8,33.5,30.11,WNW,292,19.0,29.0,62,0.00,,,0.00,Weather View 32 v70,2013-01-16 22:00:00,
2013-01-16 16:05:00,45.6,33.3,30.10,NW,315,21.0,32.0,62,0.00,,,0.00,Weather View 32 v70,2013-01-16 22:05:00,
2013-01-16 16:10:00,45.3,33.4,30.13,NW,315,19.0,32.0,63,0.00,,,0.00,Weather View 32 v70,2013-01-16 22:10:00,
2013-01-16 16:15:00,44.9,33.0,30.13,NW,315,22.0,32.0,63,0.00,,,0.00,Weather View 32 v70,2013-01-16 22:15:00,
2013-01-16 16:20:00,44.5,33.1,30.13,NW,315,22.0,33.0,64,0.00,,,0.00,Weather View 32 v70,2013-01-16 22:20:00,
2013-01-16 16:25:00,44.3,33.3,30.14,NW,315,7.0,33.0,65,0.00,,,0.00,Weather View 32 v70,2013-01-16 22:25:00,
2013-01-16 16:30:00,44.1,33.5,30.14,NW,315,19.0,33.0,66,0.00,,,0.00,Weather View 32 v70,2013-01-16 22:30:00,
2013-01-16 16:35:00,44.2,33.2,30.15,NW,315,15.0,33.0,65,0.00,,,0.00,Weather View 32 v70,2013-01-16 22:35:00,
2013-01-16 16:40:00,43.8,33.2,30.16,NNW,337,14.0,33.0,66,0.00,,,0.00,Weather View 32 v70,2013-01-16 22:40:00,
2013-01-16 16:45:00,43.6,33.4,30.15,NW,315,22.0,33.0,67,0.00,,,0.00,Weather View 32 v70,2013-01-16 22:45:00,
2013-01-16 16:50:00,43.2,33.3,30.16,NW,315,19.0,33.0,68,0.00,,,0.00,Weather View 32 v70,2013-01-16 22:50:00,
2013-01-16 16:55:00,43.1,33.2,30.16,NW,315,13.0,33.0,68,0.00,,,0.00,Weather View 32 v70,2013-01-16 22:55:00,
2013-01-16 17:00:00,42.7,33.2,30.17,WNW,292,18.0,33.0,69,0.00,,,0.00,Weather View 32 v70,2013-01-16 23:00:00,
2013-01-16 17:05:00,42.2,33.1,30.17,NW,315,15.0,33.0,70,0.00,,,0.00,Weather View 32 v70,2013-01-16 23:05:00,
2013-01-16 17:10:00,41.8,33.1,30.17,NW,315,7.0,33.0,71,0.00,,,0.00,Weather View 32 v70,2013-01-16 23:10:00,
2013-01-16 17:15:00,41.6,32.9,30.17,NW,315,11.0,33.0,71,0.00,,,0.00,Weather View 32 v70,2013-01-16 23:15:00,
2013-01-16 17:20:00,40.9,32.9,30.18,NW,315,11.0,31.0,73,0.00,,,0.00,Weather View 32 v70,2013-01-16 23:20:00,
2013-01-16 17:25:00,40.5,32.9,30.18,West,270,4.0,25.0,74,0.00,,,0.00,Weather View 32 v70,2013-01-16 23:25:00,
2013-01-16 17:30:00,40.4,32.8,30.18,NW,315,11.0,25.0,74,0.00,,,0.00,Weather View 32 v70,2013-01-16 23:30:00,
2013-01-16 17:35:00,40.3,32.7,30.19,West,270,9.0,25.0,74,0.00,,,0.00,Weather View 32 v70,2013-01-16 23:35:00,
2013-01-16 17:41:00,40.1,32.8,30.19,WNW,292,4.0,25.0,75,0.00,,,0.00,Weather View 32 v70,2013-01-16 23:41:00,
2013-01-16 17:46:00,39.9,32.9,30.20,WNW,292,9.0,24.0,76,0.00,,,0.00,Weather View 32 v70,2013-01-16 23:46:00,
2013-01-16 17:51:00,39.8,33.2,30.20,WNW,292,11.0,21.0,77,0.00,,,0.00,Weather View 32 v70,2013-01-16 23:51:00,
2013-01-16 17:56:00,39.9,33.3,30.20,NW,315,12.0,21.0,77,0.00,,,0.00,Weather View 32 v70,2013-01-16 23:56:00,
2013-01-16 18:01:00,39.8,33.2,30.21,WNW,292,6.0,21.0,77,0.00,,,0.00,Weather View 32 v70,2013-01-17 00:01:00,
2013-01-16 18:06:00,39.8,33.2,30.22,WNW,292,9.0,21.0,77,0.00,,,0.00,Weather View 32 v70,2013-01-17 00:06:00,
2013-01-16 18:11:00,39.9,33.3,30.21,West,270,7.0,21.0,77,0.00,,,0.00,Weather View 32 v70,2013-01-17 00:11:00,
2013-01-16 18:16:00,39.8,33.5,30.22,NW,315,9.0,21.0,78,0.00,,,0.00,Weather View 32 v70,2013-01-17 00:16:00,
2013-01-16 18:21:00,39.8,33.5,30.22,WNW,292,13.0,21.0,78,0.00,,,0.00,Weather View 32 v70,2013-01-17 00:21:00,
2013-01-16 18:26:00,39.8,33.2,30.23,NW,315,13.0,21.0,77,0.00,,,0.00,Weather View 32 v70,2013-01-17 00:26:00,
2013-01-16 18:31:00,39.7,33.4,30.22,NW,315,11.0,21.0,78,0.00,,,0.00,Weather View 32 v70,2013-01-17 00:31:00,
2013-01-16 18:36:00,39.7,33.4,30.23,NW,315,12.0,22.0,78,0.00,,,0.00,Weather View 32 v70,2013-01-17 00:36:00,
2013-01-16 18:41:00,39.5,33.2,30.24,WNW,292,7.0,22.0,78,0.00,,,0.00,Weather View 32 v70,2013-01-17 00:41:00,
2013-01-16 18:46:00,39.4,33.1,30.24,NW,315,11.0,22.0,78,0.00,,,0.00,Weather View 32 v70,2013-01-17 00:46:00,
2013-01-16 18:51:00,39.1,33.1,30.24,NW,315,7.0,22.0,79,0.00,,,0.00,Weather View 32 v70,2013-01-17 00:51:00,
2013-01-16 18:56:00,38.8,33.2,30.24,NW,315,7.0,22.0,80,0.00,,,0.00,Weather View 32 v70,2013-01-17 00:56:00,
2013-01-16 19:01:00,38.7,33.1,30.25,NW,315,5.0,22.0,80,0.00,,,0.00,Weather View 32 v70,2013-01-17 01:01:00,
2013-01-16 19:06:00,38.3,33.0,30.25,WNW,292,6.0,22.0,81,0.00,,,0.00,Weather View 32 v70,2013-01-17 01:06:00,
2013-01-16 19:11:00,38.2,33.2,30.25,West,270,5.0,22.0,82,0.00,,,0.00,Weather View 32 v70,2013-01-17 01:11:00,
2013-01-16 19:16:00,37.8,33.1,30.25,NW,315,8.0,22.0,83,0.00,,,0.00,Weather View 32 v70,2013-01-17 01:16:00,
2013-01-16 19:21:00,37.3,32.9,30.26,NW,315,7.0,22.0,84,0.00,,,0.00,Weather View 32 v70,2013-01-17 01:21:00,
2013-01-16 19:26:00,36.8,32.7,30.26,NW,315,7.0,22.0,85,0.00,,,0.00,Weather View 32 v70,2013-01-17 01:26:00,
2013-01-16 19:31:00,36.5,32.4,30.27,NNW,337,6.0,22.0,85,0.00,,,0.00,Weather View 32 v70,2013-01-17 01:31:00,
2013-01-16 19:36:00,36.3,32.2,30.28,North,360,1.0,16.0,85,0.00,,,0.00,Weather View 32 v70,2013-01-17 01:36:00,
2013-01-16 19:41:00,35.7,31.6,30.28,North,360,3.0,14.0,85,0.00,,,0.00,Weather View 32 v70,2013-01-17 01:41:00,
2013-01-16 19:46:00,35.2,31.1,30.28,NE,45,4.0,12.0,85,0.00,,,0.00,Weather View 32 v70,2013-01-17 01:46:00,
2013-01-16 19:51:00,34.1,30.1,30.28,North,360,3.0,11.0,85,0.00,,,0.00,Weather View 32 v70,2013-01-17 01:51:00,
2013-01-16 19:56:00,33.5,29.8,30.28,North,360,3.0,11.0,86,0.00,,,0.00,Weather View 32 v70,2013-01-17 01:56:00,
2013-01-16 20:01:00,32.9,29.5,30.29,North,360,3.0,11.0,87,0.00,,,0.00,Weather View 32 v70,2013-01-17 02:01:00,
2013-01-16 20:06:00,32.5,29.3,30.30,North,360,4.0,11.0,88,0.00,,,0.00,Weather View 32 v70,2013-01-17 02:06:00,
2013-01-16 20:11:00,32.0,28.8,30.30,NNW,337,2.0,11.0,88,0.00,,,0.00,Weather View 32 v70,2013-01-17 02:11:00,
2013-01-16 20:16:00,31.6,28.5,30.31,North,360,4.0,10.0,88,0.00,,,0.00,Weather View 32 v70,2013-01-17 02:16:00,
2013-01-16 20:21:00,31.5,28.4,30.31,North,360,4.0,11.0,88,0.00,,,0.00,Weather View 32 v70,2013-01-17 02:21:00,
2013-01-16 20:26:00,30.9,28.0,30.31,North,360,6.0,11.0,89,0.00,,,0.00,Weather View 32 v70,2013-01-17 02:26:00,
2013-01-16 20:31:00,30.5,27.6,30.31,North,360,6.0,11.0,89,0.00,,,0.00,Weather View 32 v70,2013-01-17 02:31:00,
2013-01-16 20:36:00,30.2,27.6,30.31,North,360,2.0,12.0,90,0.00,,,0.00,Weather View 32 v70,2013-01-17 02:36:00,
2013-01-16 20:41:00,29.9,27.3,30.32,NE,45,2.0,12.0,90,0.00,,,0.00,Weather View 32 v70,2013-01-17 02:41:00,
2013-01-16 20:46:00,29.7,27.4,30.32,NW,315,2.0,12.0,91,0.00,,,0.00,Weather View 32 v70,2013-01-17 02:46:00,
2013-01-16 20:51:00,29.4,27.1,30.33,NW,315,4.0,12.0,91,0.00,,,0.00,Weather View 32 v70,2013-01-17 02:51:00,
2013-01-16 20:56:00,29.3,27.3,30.33,NW,315,4.0,12.0,92,0.00,,,0.00,Weather View 32 v70,2013-01-17 02:56:00,
2013-01-16 21:01:00,29.3,27.3,30.33,NW,315,2.0,12.0,92,0.00,,,0.00,Weather View 32 v70,2013-01-17 03:01:00,
2013-01-16 21:06:00,29.5,27.5,30.34,NW,315,6.0,12.0,92,0.00,,,0.00,Weather View 32 v70,2013-01-17 03:06:00,
2013-01-16 21:11:00,29.6,27.3,30.35,NW,315,9.0,12.0,91,0.00,,,0.00,Weather View 32 v70,2013-01-17 03:11:00,
2013-01-16 21:16:00,29.7,27.4,30.35,NW,315,7.0,12.0,91,0.00,,,0.00,Weather View 32 v70,2013-01-17 03:16:00,
2013-01-16 21:21:00,29.8,27.5,30.35,NE,45,4.0,12.0,91,0.00,,,0.00,Weather View 32 v70,2013-01-17 03:21:00,
2013-01-16 21:26:00,29.5,26.9,30.35,NNW,337,2.0,12.0,90,0.00,,,0.00,Weather View 32 v70,2013-01-17 03:26:00,
2013-01-16 21:31:00,29.0,26.2,30.36,NNE,22,7.0,12.0,89,0.00,,,0.00,Weather View 32 v70,2013-01-17 03:31:00,
2013-01-16 21:36:00,28.5,25.7,30.35,North,360,2.0,12.0,89,0.00,,,0.00,Weather View 32 v70,2013-01-17 03:36:00,
2013-01-16 21:41:00,27.9,25.3,30.35,NNE,22,2.0,12.0,90,0.00,,,0.00,Weather View 32 v70,2013-01-17 03:41:00,
2013-01-16 21:46:00,27.6,25.1,30.35,North,360,3.0,12.0,90,0.00,,,0.00,Weather View 32 v70,2013-01-17 03:46:00,
2013-01-16 21:51:00,27.2,24.7,30.36,NW,315,4.0,12.0,90,0.00,,,0.00,Weather View 32 v70,2013-01-17 03:51:00,
2013-01-16 21:56:00,26.9,24.4,30.36,NNW,337,1.0,12.0,90,0.00,,,0.00,Weather View 32 v70,2013-01-17 03:56:00,
2013-01-16 22:01:00,26.5,24.0,30.36,North,360,7.0,12.0,90,0.00,,,0.00,Weather View 32 v70,2013-01-17 04:01:00,
2013-01-16 22:06:00,26.2,23.9,30.38,North,360,3.0,12.0,91,0.00,,,0.00,Weather View 32 v70,2013-01-17 04:06:00,
2013-01-16 22:11:00,25.9,23.4,30.38,North,360,2.0,12.0,90,0.00,,,0.00,Weather View 32 v70,2013-01-17 04:11:00,
2013-01-16 22:16:00,25.7,23.2,30.38,North,360,2.0,12.0,90,0.00,,,0.00,Weather View 32 v70,2013-01-17 04:16:00,
2013-01-16 22:21:00,25.4,22.6,30.39,North,360,4.0,12.0,89,0.00,,,0.00,Weather View 32 v70,2013-01-17 04:21:00,
2013-01-16 22:26:00,25.2,22.4,30.40,NW,315,1.0,7.0,89,0.00,,,0.00,Weather View 32 v70,2013-01-17 04:26:00,
2013-01-16 22:31:00,25.0,22.2,30.40,NW,315,3.0,7.0,89,0.00,,,0.00,Weather View 32 v70,2013-01-17 04:31:00,
2013-01-16 22:36:00,24.7,21.7,30.40,NNW,337,3.0,7.0,88,0.00,,,0.00,Weather View 32 v70,2013-01-17 04:36:00,
2013-01-16 22:41:00,24.3,20.7,30.39,NNE,22,2.0,7.0,86,0.00,,,0.00,Weather View 32 v70,2013-01-17 04:41:00,
2013-01-16 22:46:00,23.9,20.6,30.40,NW,315,3.0,7.0,87,0.00,,,0.00,Weather View 32 v70,2013-01-17 04:46:00,
2013-01-16 22:51:00,23.7,20.7,30.40,North,360,2.0,7.0,88,0.00,,,0.00,Weather View 32 v70,2013-01-17 04:51:00,
2013-01-16 22:56:00,23.4,19.3,30.40,North,360,4.0,7.0,84,0.00,,,0.00,Weather View 32 v70,2013-01-17 04:56:00,
2013-01-16 23:01:00,23.4,19.0,30.40,North,360,2.0,7.0,83,0.00,,,0.00,Weather View 32 v70,2013-01-17 05:01:00,
2013-01-16 23:02:00,23.2,18.8,30.40,North,360,1.0,7.0,83,0.00,,,0.00,Weather View 32 v70,2013-01-17 05:02:00,
2013-01-16 23:03:00,23.2,18.8,30.40,North,360,1.0,7.0,83,0.00,,,0.00,Weather View 32 v70,2013-01-17 05:03:00,
2013-01-16 23:08:00,22.9,18.5,30.40,NNE,22,2.0,7.0,83,0.00,,,0.00,Weather View 32 v70,2013-01-17 05:08:00,
2013-01-16 23:13:00,22.7,18.6,30.40,North,360,2.0,7.0,84,0.00,,,0.00,Weather View 32 v70,2013-01-17 05:13:00,
2013-01-16 23:18:00,22.5,18.7,30.41,NW,315,3.0,7.0,85,0.00,,,0.00,Weather View 32 v70,2013-01-17 05:18:00,
2013-01-16 23:23:00,22.3,18.5,30.41,North,360,2.0,7.0,85,0.00,,,0.00,Weather View 32 v70,2013-01-17 05:23:00,
2013-01-16 23:28:00,22.0,18.5,30.41,NNW,337,2.0,7.0,86,0.00,,,0.00,Weather View 32 v70,2013-01-17 05:28:00,
2013-01-16 23:33:00,21.9,18.1,30.41,NNE,22,3.0,7.0,85,0.00,,,0.00,Weather View 32 v70,2013-01-17 05:33:00,
2013-01-16 23:38:00,21.8,18.0,30.41,North,360,2.0,7.0,85,0.00,,,0.00,Weather View 32 v70,2013-01-17 05:38:00,
2013-01-16 23:43:00,21.6,17.5,30.41,North,360,1.0,7.0,84,0.00,,,0.00,Weather View 32 v70,2013-01-17 05:43:00,
2013-01-16 23:48:00,21.2,16.0,30.42,NNW,337,4.0,7.0,80,0.00,,,0.00,Weather View 32 v70,2013-01-17 05:48:00,
2013-01-16 23:53:00,20.9,15.1,30.43,North,360,2.0,7.0,78,0.00,,,0.00,Weather View 32 v70,2013-01-17 05:53:00,
2013-01-16 23:58:00,20.7,14.6,30.43,North,360,1.0,7.0,77,0.00,,,0.00,Weather View 32 v70,2013-01-17 05:58:00,